Погода в Сан-Хуане-де-Аликанте

Испания     38°24′06″N   0°25′58″E
темп.,
°C
ветер,
м/с
пор.,
м/с
влажн.,
%
обл.,
%
осадки,
мм/ч
давл.,
гПа
погр.,
м
9 марта, вт
вт901:00+9с2279100 0.9 101661
04:00+8с238096 0.0 101666
07:00+8с227995 0.0 101652
10:00+11св116488 0.0 1018561
13:00+12ююв326091 0.2 1018941
16:00+12вюв336697 0.4 1016628
19:00+10юв227769 0.4 1017165
22:00+8ююз11873 0.0 1019119
10 марта, ср
ср1001:00+7з11904 0.0 102093
04:00+7зсз128817 0.0 102049
07:00+7ссз12838 0.0 102129
10:00+11вюв11640 0.0 1023396
13:00+14ююв23523 0.0 10231279
16:00+13ююв336317 0.0 1022735
19:00+11ю238329 0.0 1023221
22:00+9юз129127 0.0 102596
11 марта, чт
чт1101:00+9зсз227614 0.0 102534
04:00+9сз23490 0.0 102427
07:00+9сз34440 0.0 102532
10:00+14зсз35430 0.0 1026460
13:00+18з453310 0.0 10251099
16:00+19юз563137 0.0 10231260
19:00+14ююз236133 0.0 102390
22:00+12зсз11711 0.0 102428
12 марта, пт
пт1201:00+12зсз225512 0.0 102325
04:00+12сз5563100 0.0 102286
07:00+12сз457062 0.0 102183
10:00+16сз46580 0.0 1022389
13:00+19зсз57420 0.0 10211064
16:00+20зсз573910 0.0 10191251
19:00+17сз484919 0.0 1019254
22:00+13ссв5677100 0.0 1021182
13 марта, сб
сб1301:00+11ссв338162 0.0 1022103
04:00+10с347694 0.0 102293
07:00+9с227579 0.0 102247
10:00+12ю216415 0.0 1023489
13:00+14юв326426 0.0 1023750
16:00+13ююв336791 0.1 1020637
19:00+12ю227679 0.1 1020354
22:00+10з12823 0.0 102192